CW7104 Weather Reports


time (UTC)temp
C
wind
direction
speed
KPH
gust
KPH
rain 1hr
cm
rain 24hr
cm
rain mn
cm
humidity
%
barometer
mb
20260505022405 21 194 3.2 16.1 0.00 0.00 0.00 46 1006.6
20260505021905 21 203 4.8 14.5 0.00 0.00 0.00 45 1006.5
20260505020905 21 219 4.8 12.9 0.00 0.00 0.00 45 1006.4
20260505020404 22 169 4.8 14.5 0.00 0.00 0.00 45 1006.4
20260505015905 22 183 0.0 11.3 0.00 0.00 0.00 45 1006.3
20260505015405 22 192 3.2 14.5 0.00 0.00 0.00 44 1006.2
20260505014904 22 151 0.0 14.5 0.00 0.00 0.00 44 1006.3
20260505014404 22 237 1.6 12.9 0.00 0.00 0.00 43 1006.2
20260505013905 22 212 4.8 19.3 0.00 0.00 0.00 43 1006.1
20260505013404 22 175 3.2 19.3 0.00 0.00 0.00 43 1006.0
20260505012904 22 230 8.0 19.3 0.00 0.00 0.00 43 1006.0
20260505012404 22 269 8.0 19.3 0.00 0.00 0.00 43 1005.8
20260505011904 22 166 6.4 19.3 0.00 0.00 0.00 42 1005.7
20260505011405 22 178 4.8 12.9 0.00 0.00 0.00 42 1005.6
20260505010905 22 166 0.0 1.6 0.00 0.00 0.00 42 1005.7
20260505010405 22 191 4.8 19.3 0.00 0.00 0.00 41 1005.6
20260505005904 22 180 3.2 20.9 0.00 0.00 0.00 42 1005.6
20260505005404 23 173 0.0 11.3 0.00 0.00 0.00 41 1005.6
20260505004405 23 197 3.2 9.7 0.00 0.00 0.00 40 1005.4
20260505003905 23 199 9.7 19.3 0.00 0.00 0.00 40 1005.3
20260505003405 23 350 6.4 19.3 0.00 0.00 0.00 39 1005.3
20260505002904 23 259 4.8 14.5 0.00 0.00 0.00 39 1005.2
20260505001905 24 206 3.2 22.5 0.00 0.00 0.00 38 1005.2
20260505001404 24 173 3.2 14.5 0.00 0.00 0.00 38 1005.2
20260505000905 25 281 1.6 16.1 0.00 0.00 0.00 37 1005.1
20260504235904 25 157 12.9 32.2 0.00 0.00 0.00 35 1004.9
20260504235404 25 234 4.8 19.3 0.00 0.00 0.00 36 1004.8
20260504234904 25 144 8.0 22.5 0.00 0.00 0.00 35 1004.9
20260504234405 25 144 0.0 16.1 0.00 0.00 0.00 36 1005.0
20260504233904 25 165 9.7 20.9 0.00 0.00 0.00 35 1005.0
20260504233405 25 172 8.0 38.6 0.00 0.00 0.00 35 1005.1
20260504232905 25 176 8.0 24.1 0.00 0.00 0.00 36 1005.2
20260504232405 25 154 8.0 20.9 0.00 0.00 0.00 36 1005.3
20260504231905 25 157 8.0 22.5 0.00 0.00 0.00 36 1005.4
20260504231405 25 174 0.0 19.3 0.00 0.00 0.00 35 1005.5
20260504230904 25 175 4.8 22.5 0.00 0.00 0.00 34 1005.8
20260504230404 25 217 9.7 20.9 0.00 0.00 0.00 34 1005.7
20260504225905 25 144 1.6 19.3 0.00 0.00 0.00 35 1005.8
20260504224904 25 203 1.6 14.5 0.00 0.00 0.00 34 1006.7
20260504224405 26 188 3.2 14.5 0.00 0.00 0.00 34 1006.7
20260504223905 26 215 1.6 11.3 0.00 0.00 0.00 34 1006.8
20260504223404 26 152 1.6 11.3 0.00 0.00 0.00 35 1006.8
20260504222904 25 173 3.2 12.9 0.00 0.00 0.00 34 1007.0
20260504222405 25 223 3.2 20.9 0.00 0.00 0.00 33 1007.1
20260504221905 25 188 3.2 12.9 0.00 0.00 0.00 33 1007.3
20260504221405 25 233 1.6 14.5 0.00 0.00 0.00 35 1007.3
20260504220904 25 210 4.8 19.3 0.00 0.00 0.00 35 1007.4
20260504220404 25 310 3.2 12.9 0.00 0.00 0.00 36 1007.6
20260504215905 25 168 1.6 14.5 0.00 0.00 0.00 36 1007.6
20260504215404 25 221 1.6 9.7 0.00 0.00 0.00 36 1007.8
20260504214904 25 256 0.0 12.9 0.00 0.00 0.00 35 1007.8
20260504214405 25 245 3.2 12.9 0.00 0.00 0.00 35 1007.8
20260504213905 25 148 4.8 19.3 0.00 0.00 0.00 34 1007.8
20260504213404 25 245 1.6 11.3 0.00 0.00 0.00 34 1007.8
20260504212404 26 212 3.2 22.5 0.00 0.00 0.00 37 1007.7
20260504211904 26 207 1.6 8.0 0.00 0.00 0.00 36 1007.7
20260504210904 26 288 1.6 14.5 0.00 0.00 0.00 36 1007.7
20260504205904 26 263 3.2 11.3 0.00 0.00 0.00 35 1007.7
20260504205404 26 332 3.2 19.3 0.00 0.00 0.00 34 1007.7
20260504204904 26 163 3.2 19.3 0.00 0.00 0.00 35 1007.6
20260504204404 26 292 4.8 22.5 0.00 0.00 0.00 34 1007.5
20260504203905 26 235 4.8 14.5 0.00 0.00 0.00 34 1007.5
20260504202904 27 300 3.2 19.3 0.00 0.00 0.00 34 1007.5
20260504202404 27 182 3.2 19.3 0.00 0.00 0.00 35 1007.5
20260504201904 27 229 4.8 35.4 0.00 0.00 0.00 34 1007.5
20260504200904 27 270 3.2 19.3 0.00 0.00 0.00 36 1007.6
20260504200404 27 247 4.8 25.7 0.00 0.00 0.00 38 1007.6
20260504195404 26 247 1.6 16.1 0.00 0.00 0.00 39 1007.6
20260504194904 26 322 4.8 19.3 0.00 0.00 0.00 40 1007.6
20260504194405 26 163 8.0 24.1 0.00 0.00 0.00 39 1007.6
20260504193904 26 187 3.2 19.3 0.00 0.00 0.00 38 1007.6
20260504192904 27 214 3.2 22.5 0.00 0.00 0.00 37 1007.4
20260504191905 27 162 3.2 11.3 0.00 0.00 0.00 37 1007.3
20260504191404 27 228 4.8 22.5 0.00 0.00 0.00 37 1007.5
20260504190404 27 290 1.6 12.9 0.00 0.00 0.00 38 1007.7
20260504185904 26 273 4.8 25.7 0.00 0.00 0.00 36 1007.7
20260504185405 26 268 8.0 29.0 0.00 0.00 0.00 36 1007.8
20260504184904 26 201 3.2 19.3 0.00 0.00 0.00 38 1007.8
20260504184404 26 195 4.8 25.7 0.00 0.00 0.00 39 1007.9
20260504183904 26 192 8.0 20.9 0.00 0.00 0.00 39 1007.9
20260504183404 26 314 1.6 24.1 0.00 0.00 0.00 38 1008.0
20260504182905 26 279 1.6 12.9 0.00 0.00 0.00 39 1008.1
20260504182405 26 183 8.0 32.2 0.00 0.00 0.00 38 1008.2
20260504181405 26 213 1.6 19.3 0.00 0.00 0.00 38 1008.3
20260504180905 26 226 9.7 25.7 0.00 0.00 0.00 37 1008.4
20260504180404 26 333 4.8 33.8 0.00 0.00 0.00 37 1008.4
20260504175904 26 293 4.8 19.3 0.00 0.00 0.00 38 1008.5
20260504174904 26 278 1.6 3.2 0.00 0.00 0.00 40 1008.5
20260504173404 25 266 4.8 16.1 0.00 0.00 0.00 42 1008.7
20260504172904 25 204 1.6 25.7 0.00 0.00 0.00 44 1008.8
20260504172405 25 172 1.6 25.7 0.00 0.00 0.00 43 1008.8
20260504171904 25 206 1.6 14.5 0.00 0.00 0.00 44 1008.9
20260504171405 25 257 6.4 32.2 0.00 0.00 0.00 42 1009.1
20260504170904 25 280 6.4 24.1 0.00 0.00 0.00 42 1009.2
20260504170404 25 223 4.8 22.5 0.00 0.00 0.00 43 1009.2
20260504160404 23 140 6.4 20.9 0.00 0.00 0.00 50 1009.8
20260504150904 21 195 3.2 12.9 0.00 0.00 0.00 54 1010.1
20260504150404 21 319 0.0 16.1 0.00 0.00 0.00 53 1010.1
20260504140904 18 181 4.8 19.3 0.00 0.00 0.00 59 1010.7
20260504140404 18 181 4.8 12.9 0.00 0.00 0.00 59 1010.7
20260504130403 15 177 1.6 14.5 0.00 0.00 0.00 65 1011.6
20260504100403 13 112 0.0 0.0 0.00 0.00 0.00 69 1011.2
20260504081905 15 345 3.2 16.1 0.00 0.00 0.00 58 1011.9
20260504080906 15 161 0.0 0.0 0.00 0.00 0.00 58 1010.1
20260504080405 15 162 0.0 0.0 0.00 0.00 0.00 57 1010.1
20260504070405 16 182 1.6 12.9 0.00 0.00 0.00 54 1010.4
20260504050405 14 176 0.0 0.0 0.00 0.00 0.00 55 1011.4
20260504045905 14 173 0.0 0.0 0.00 0.00 0.00 55 1011.5
20260504045404 14 159 0.0 0.0 0.00 0.00 0.00 55 1011.5
20260504044906 14 180 0.0 0.0 0.00 0.00 0.00 55 1011.6
20260504044405 14 177 0.0 0.0 0.00 0.00 0.00 55 1011.7
20260504043905 14 155 0.0 0.0 0.00 0.00 0.00 55 1011.7
20260504043405 14 167 0.0 0.0 0.00 0.00 0.00 56 1011.7
20260504042905 14 148 0.0 0.0 0.00 0.00 0.00 56 1011.8
20260504042405 14 167 0.0 0.0 0.00 0.00 0.00 56 1011.8
20260504041405 14 142 0.0 0.0 0.00 0.00 0.00 56 1011.9
20260504040904 14 155 0.0 0.0 0.00 0.00 0.00 56 1012.1
20260504040405 14 168 0.0 0.0 0.00 0.00 0.00 56 1012.1
20260504035904 14 171 0.0 0.0 0.00 0.00 0.00 56 1012.1
20260504035405 14 189 0.0 0.0 0.00 0.00 0.00 56 1012.1
20260504034905 14 191 0.0 0.0 0.00 0.00 0.00 55 1012.2
20260504034404 14 148 0.0 0.0 0.00 0.00 0.00 55 1012.2
20260504033905 14 173 0.0 0.0 0.00 0.00 0.00 55 1012.2
20260504033404 15 199 0.0 0.0 0.00 0.00 0.00 55 1012.2
20260504032905 15 179 0.0 0.0 0.00 0.00 0.00 54 1012.4
20260504032405 15 166 0.0 0.0 0.00 0.00 0.00 54 1012.4
20260504031905 15 157 0.0 0.0 0.00 0.00 0.00 53 1012.5
20260504031404 15 174 0.0 0.0 0.00 0.00 0.00 53 1012.6
20260504030905 15 137 0.0 0.0 0.00 0.00 0.00 53 1012.6
20260504030405 15 193 0.0 0.0 0.00 0.00 0.00 52 1012.7
20260504025905 15 140 0.0 0.0 0.00 0.00 0.00 52 1012.7
20260504024905 15 196 0.0 0.0 0.00 0.00 0.00 52 1012.7
20260504024405 15 196 0.0 0.0 0.00 0.00 0.00 51 1012.7
20260504023905 15 173 0.0 0.0 0.00 0.00 0.00 51 1012.7
20260504023404 15 182 0.0 0.0 0.00 0.00 0.00 51 1012.6